owner,sensor,date,latitude,longitude,air_temperature,qcFlag 
LOOP,urn:ioos:station:wmo:lopl1:1,2012-06-01T00:04:00Z,28.8850,-90.0250,22.9,11111222 
LOOP,urn:ioos:station:wmo:lopl1:1,2012-06-01T00:24:00Z,28.8850,-90.0250,23.4,11111222 
LOOP,urn:ioos:station:wmo:lopl1:1,2012-06-01T00:39:00Z,28.8850,-90.0250,24.1,11111222 
LOOP,urn:ioos:station:wmo:lopl1:1,2012-06-01T00:54:00Z,28.8850,-90.0250,23.6,11111222 
LOOP,urn:ioos:station:wmo:lopl1:1,2012-06-01T01:09:00Z,28.8850,-90.0250,23.6,11111222 
LOOP,urn:ioos:station:wmo:lopl1:1,2012-06-01T01:24:00Z,28.8850,-90.0250,24.9,11111222 
LOOP,urn:ioos:station:wmo:lopl1:1,2012-06-01T01:39:00Z,28.8850,-90.0250,24.5,11111222 
LOOP,urn:ioos:station:wmo:lopl1:1,2012-06-01T01:54:00Z,28.8850,-90.0250,25.4,11111222 
LOOP,urn:ioos:station:wmo:lopl1:1,2012-06-01T02:09:00Z,28.8850,-90.0250,25.5,11111222 
LOOP,urn:ioos:station:wmo:lopl1:1,2012-06-01T02:24:00Z,28.8850,-90.0250,25.5,11111222 
LOOP,urn:ioos:station:wmo:lopl1:1,2012-06-01T02:39:00Z,28.8850,-90.0250,25.5,11111222 
LOOP,urn:ioos:station:wmo:lopl1:1,2012-06-01T02:54:00Z,28.8850,-90.0250,25.3,11111222 
LOOP,urn:ioos:station:wmo:lopl1:1,2012-06-01T03:09:00Z,28.8850,-90.0250,25.6,11111222 
LOOP,urn:ioos:station:wmo:lopl1:1,2012-06-01T03:24:00Z,28.8850,-90.0250,26.1,11111222 
LOOP,urn:ioos:station:wmo:lopl1:1,2012-06-01T03:39:00Z,28.8850,-90.0250,26.0,11111222 
LOOP,urn:ioos:station:wmo:lopl1:1,2012-06-01T03:54:00Z,28.8850,-90.0250,25.9,11111222 
LOOP,urn:ioos:station:wmo:lopl1:1,2012-06-01T04:09:00Z,28.8850,-90.0250,26.2,11111222 
LOOP,urn:ioos:station:wmo:lopl1:1,2012-06-01T04:24:00Z,28.8850,-90.0250,26.5,11111222 
LOOP,urn:ioos:station:wmo:lopl1:1,2012-06-01T04:39:00Z,28.8850,-90.0250,26.5,11111222 
LOOP,urn:ioos:station:wmo:lopl1:1,2012-06-01T04:54:00Z,28.8850,-90.0250,26.8,11111222 
LOOP,urn:ioos:station:wmo:lopl1:1,2012-06-01T05:09:00Z,28.8850,-90.0250,27.1,11111222 
LOOP,urn:ioos:station:wmo:lopl1:1,2012-06-01T05:24:00Z,28.8850,-90.0250,27.3,11111222 
LOOP,urn:ioos:station:wmo:lopl1:1,2012-06-01T05:39:00Z,28.8850,-90.0250,27.1,11111222 
LOOP,urn:ioos:station:wmo:lopl1:1,2012-06-01T05:54:00Z,28.8850,-90.0250,27.2,11111222 
LOOP,urn:ioos:station:wmo:lopl1:1,2012-06-01T06:09:00Z,28.8850,-90.0250,26.4,11111222 
LOOP,urn:ioos:station:wmo:lopl1:1,2012-06-01T06:24:00Z,28.8850,-90.0250,26.6,11111222 
LOOP,urn:ioos:station:wmo:lopl1:1,2012-06-01T06:39:00Z,28.8850,-90.0250,26.7,11111222 
LOOP,urn:ioos:station:wmo:lopl1:1,2012-06-01T06:59:00Z,28.8850,-90.0250,27.3,11111222 
LOOP,urn:ioos:station:wmo:lopl1:1,2012-06-01T07:14:00Z,28.8850,-90.0250,27.3,11111222 
LOOP,urn:ioos:station:wmo:lopl1:1,2012-06-01T07:29:00Z,28.8850,-90.0250,26.3,11111222 
LOOP,urn:ioos:station:wmo:lopl1:1,2012-06-01T07:44:00Z,28.8850,-90.0250,26.6,11111222 
LOOP,urn:ioos:station:wmo:lopl1:1,2012-06-01T07:59:00Z,28.8850,-90.0250,26.9,11111222 
LOOP,urn:ioos:station:wmo:lopl1:1,2012-06-01T08:14:00Z,28.8850,-90.0250,26.3,11111222 
LOOP,urn:ioos:station:wmo:lopl1:1,2012-06-01T08:29:00Z,28.8850,-90.0250,27.0,11111222 
LOOP,urn:ioos:station:wmo:lopl1:1,2012-06-01T08:44:00Z,28.8850,-90.0250,27.4,11111222 
LOOP,urn:ioos:station:wmo:lopl1:1,2012-06-01T08:59:00Z,28.8850,-90.0250,25.9,11111222 
LOOP,urn:ioos:station:wmo:lopl1:1,2012-06-01T09:14:00Z,28.8850,-90.0250,25.6,11111222 
LOOP,urn:ioos:station:wmo:lopl1:1,2012-06-01T09:29:00Z,28.8850,-90.0250,25.7,11111222 
LOOP,urn:ioos:station:wmo:lopl1:1,2012-06-01T09:44:00Z,28.8850,-90.0250,26.0,11111222 
LOOP,urn:ioos:station:wmo:lopl1:1,2012-06-01T09:59:00Z,28.8850,-90.0250,26.1,11111222 
LOOP,urn:ioos:station:wmo:lopl1:1,2012-06-01T10:14:00Z,28.8850,-90.0250,26.6,11111222 
LOOP,urn:ioos:station:wmo:lopl1:1,2012-06-01T10:29:00Z,28.8850,-90.0250,26.7,11111222 
LOOP,urn:ioos:station:wmo:lopl1:1,2012-06-01T10:44:00Z,28.8850,-90.0250,26.7,11111222 
LOOP,urn:ioos:station:wmo:lopl1:1,2012-06-01T10:59:00Z,28.8850,-90.0250,26.5,11111222 
LOOP,urn:ioos:station:wmo:lopl1:1,2012-06-01T11:14:00Z,28.8850,-90.0250,26.5,11111222 
LOOP,urn:ioos:station:wmo:lopl1:1,2012-06-01T11:29:00Z,28.8850,-90.0250,26.7,11111222 
LOOP,urn:ioos:station:wmo:lopl1:1,2012-06-01T11:44:00Z,28.8850,-90.0250,26.4,11111222 
LOOP,urn:ioos:station:wmo:lopl1:1,2012-06-01T11:59:00Z,28.8850,-90.0250,26.3,11111222 
LOOP,urn:ioos:station:wmo:lopl1:1,2012-06-01T12:14:00Z,28.8850,-90.0250,26.0,11111222 
LOOP,urn:ioos:station:wmo:lopl1:1,2012-06-01T12:29:00Z,28.8850,-90.0250,25.8,11111222 
LOOP,urn:ioos:station:wmo:lopl1:1,2012-06-01T12:44:00Z,28.8850,-90.0250,26.0,11111222 
LOOP,urn:ioos:station:wmo:lopl1:1,2012-06-01T12:59:00Z,28.8850,-90.0250,26.3,11111222 
LOOP,urn:ioos:station:wmo:lopl1:1,2012-06-01T13:14:00Z,28.8850,-90.0250,26.3,11111222 
LOOP,urn:ioos:station:wmo:lopl1:1,2012-06-01T13:29:00Z,28.8850,-90.0250,26.6,11111222 
LOOP,urn:ioos:station:wmo:lopl1:1,2012-06-01T13:44:00Z,28.8850,-90.0250,26.8,11111222 
LOOP,urn:ioos:station:wmo:lopl1:1,2012-06-01T13:59:00Z,28.8850,-90.0250,27.0,11111222 
LOOP,urn:ioos:station:wmo:lopl1:1,2012-06-01T14:14:00Z,28.8850,-90.0250,27.2,11111222 
LOOP,urn:ioos:station:wmo:lopl1:1,2012-06-01T14:34:00Z,28.8850,-90.0250,27.3,11111222 
LOOP,urn:ioos:station:wmo:lopl1:1,2012-06-01T14:49:00Z,28.8850,-90.0250,27.3,11111222 
LOOP,urn:ioos:station:wmo:lopl1:1,2012-06-01T15:04:00Z,28.8850,-90.0250,27.4,11111222 
LOOP,urn:ioos:station:wmo:lopl1:1,2012-06-01T15:19:00Z,28.8850,-90.0250,27.7,11111222 
LOOP,urn:ioos:station:wmo:lopl1:1,2012-06-01T15:34:00Z,28.8850,-90.0250,28.2,11111222 
LOOP,urn:ioos:station:wmo:lopl1:1,2012-06-01T15:49:00Z,28.8850,-90.0250,27.9,11111222 
LOOP,urn:ioos:station:wmo:lopl1:1,2012-06-01T16:04:00Z,28.8850,-90.0250,28.3,11111222 
LOOP,urn:ioos:station:wmo:lopl1:1,2012-06-01T16:19:00Z,28.8850,-90.0250,28.3,11111222 
LOOP,urn:ioos:station:wmo:lopl1:1,2012-06-01T16:34:00Z,28.8850,-90.0250,27.8,11111222 
LOOP,urn:ioos:station:wmo:lopl1:1,2012-06-01T16:49:00Z,28.8850,-90.0250,27.4,11111222 
LOOP,urn:ioos:station:wmo:lopl1:1,2012-06-01T17:04:00Z,28.8850,-90.0250,27.7,11111222 
LOOP,urn:ioos:station:wmo:lopl1:1,2012-06-01T17:19:00Z,28.8850,-90.0250,27.7,11111222 
LOOP,urn:ioos:station:wmo:lopl1:1,2012-06-01T17:34:00Z,28.8850,-90.0250,28.1,11111222 
LOOP,urn:ioos:station:wmo:lopl1:1,2012-06-01T17:49:00Z,28.8850,-90.0250,28.2,11111222 
LOOP,urn:ioos:station:wmo:lopl1:1,2012-06-01T18:04:00Z,28.8850,-90.0250,28.0,11111222 
LOOP,urn:ioos:station:wmo:lopl1:1,2012-06-01T18:19:00Z,28.8850,-90.0250,27.5,11111222 
LOOP,urn:ioos:station:wmo:lopl1:1,2012-06-01T18:34:00Z,28.8850,-90.0250,27.8,11111222 
LOOP,urn:ioos:station:wmo:lopl1:1,2012-06-01T18:49:00Z,28.8850,-90.0250,28.1,11111222 
LOOP,urn:ioos:station:wmo:lopl1:1,2012-06-01T19:04:00Z,28.8850,-90.0250,28.2,11111222 
LOOP,urn:ioos:station:wmo:lopl1:1,2012-06-01T19:19:00Z,28.8850,-90.0250,28.0,11111222 
LOOP,urn:ioos:station:wmo:lopl1:1,2012-06-01T19:34:00Z,28.8850,-90.0250,28.0,11111222 
LOOP,urn:ioos:station:wmo:lopl1:1,2012-06-01T19:49:00Z,28.8850,-90.0250,27.7,11111222 
LOOP,urn:ioos:station:wmo:lopl1:1,2012-06-01T20:04:00Z,28.8850,-90.0250,27.5,11111222 
LOOP,urn:ioos:station:wmo:lopl1:1,2012-06-01T20:19:00Z,28.8850,-90.0250,27.7,11111222 
LOOP,urn:ioos:station:wmo:lopl1:1,2012-06-01T20:34:00Z,28.8850,-90.0250,28.6,11111222 
LOOP,urn:ioos:station:wmo:lopl1:1,2012-06-01T20:49:00Z,28.8850,-90.0250,28.6,11111222 
LOOP,urn:ioos:station:wmo:lopl1:1,2012-06-01T21:04:00Z,28.8850,-90.0250,29.0,11111222 
LOOP,urn:ioos:station:wmo:lopl1:1,2012-06-01T21:19:00Z,28.8850,-90.0250,28.8,11111222 
LOOP,urn:ioos:station:wmo:lopl1:1,2012-06-01T21:34:00Z,28.8850,-90.0250,29.0,11111222 
LOOP,urn:ioos:station:wmo:lopl1:1,2012-06-01T21:54:00Z,28.8850,-90.0250,28.8,11111222 
LOOP,urn:ioos:station:wmo:lopl1:1,2012-06-01T22:09:00Z,28.8850,-90.0250,28.6,11111222 
LOOP,urn:ioos:station:wmo:lopl1:1,2012-06-01T22:24:00Z,28.8850,-90.0250,29.1,11111222 
LOOP,urn:ioos:station:wmo:lopl1:1,2012-06-01T22:39:00Z,28.8850,-90.0250,29.3,11111222 
LOOP,urn:ioos:station:wmo:lopl1:1,2012-06-01T22:54:00Z,28.8850,-90.0250,29.4,11111222 
LOOP,urn:ioos:station:wmo:lopl1:1,2012-06-01T23:09:00Z,28.8850,-90.0250,28.2,11111222 
LOOP,urn:ioos:station:wmo:lopl1:1,2012-06-01T23:24:00Z,28.8850,-90.0250,27.7,11111222 
LOOP,urn:ioos:station:wmo:lopl1:1,2012-06-01T23:39:00Z,28.8850,-90.0250,27.7,11111222 
LOOP,urn:ioos:station:wmo:lopl1:1,2012-06-01T23:54:00Z,28.8850,-90.0250,27.6,11111222 
LOOP,urn:ioos:station:wmo:lopl1:1,2012-06-02T00:09:00Z,28.8850,-90.0250,27.6,11111222 
LOOP,urn:ioos:station:wmo:lopl1:1,2012-06-02T00:24:00Z,28.8850,-90.0250,27.6,11111222 
LOOP,urn:ioos:station:wmo:lopl1:1,2012-06-02T00:39:00Z,28.8850,-90.0250,27.7,11111222 
LOOP,urn:ioos:station:wmo:lopl1:1,2012-06-02T00:54:00Z,28.8850,-90.0250,28.0,11111222 
LOOP,urn:ioos:station:wmo:lopl1:1,2012-06-02T01:09:00Z,28.8850,-90.0250,28.0,11111222 
LOOP,urn:ioos:station:wmo:lopl1:1,2012-06-02T01:24:00Z,28.8850,-90.0250,27.8,11111222 
LOOP,urn:ioos:station:wmo:lopl1:1,2012-06-02T01:39:00Z,28.8850,-90.0250,27.7,11111222 
LOOP,urn:ioos:station:wmo:lopl1:1,2012-06-02T01:54:00Z,28.8850,-90.0250,27.6,11111222 
LOOP,urn:ioos:station:wmo:lopl1:1,2012-06-02T02:09:00Z,28.8850,-90.0250,27.5,11111222 
LOOP,urn:ioos:station:wmo:lopl1:1,2012-06-02T02:24:00Z,28.8850,-90.0250,27.4,11111222 
LOOP,urn:ioos:station:wmo:lopl1:1,2012-06-02T02:39:00Z,28.8850,-90.0250,27.4,11111222 
LOOP,urn:ioos:station:wmo:lopl1:1,2012-06-02T02:54:00Z,28.8850,-90.0250,27.6,11111222 
LOOP,urn:ioos:station:wmo:lopl1:1,2012-06-02T03:09:00Z,28.8850,-90.0250,27.6,11111222 
LOOP,urn:ioos:station:wmo:lopl1:1,2012-06-02T03:24:00Z,28.8850,-90.0250,27.5,11111222 
LOOP,urn:ioos:station:wmo:lopl1:1,2012-06-02T03:39:00Z,28.8850,-90.0250,27.4,11111222 
LOOP,urn:ioos:station:wmo:lopl1:1,2012-06-02T03:54:00Z,28.8850,-90.0250,27.3,11111222 
LOOP,urn:ioos:station:wmo:lopl1:1,2012-06-02T04:09:00Z,28.8850,-90.0250,27.3,11111222 
LOOP,urn:ioos:station:wmo:lopl1:1,2012-06-02T04:24:00Z,28.8850,-90.0250,27.1,11111222 
LOOP,urn:ioos:station:wmo:lopl1:1,2012-06-02T04:39:00Z,28.8850,-90.0250,27.2,11111222 
LOOP,urn:ioos:station:wmo:lopl1:1,2012-06-02T05:00:00Z,28.8850,-90.0250,27.4,11111222 
LOOP,urn:ioos:station:wmo:lopl1:1,2012-06-02T05:15:00Z,28.8850,-90.0250,26.9,11111222 
LOOP,urn:ioos:station:wmo:lopl1:1,2012-06-02T05:30:00Z,28.8850,-90.0250,26.9,11111222 
LOOP,urn:ioos:station:wmo:lopl1:1,2012-06-02T05:45:00Z,28.8850,-90.0250,26.8,11111222 
LOOP,urn:ioos:station:wmo:lopl1:1,2012-06-02T06:00:00Z,28.8850,-90.0250,26.8,11111222 
LOOP,urn:ioos:station:wmo:lopl1:1,2012-06-02T06:15:00Z,28.8850,-90.0250,26.7,11111222 
LOOP,urn:ioos:station:wmo:lopl1:1,2012-06-02T06:30:00Z,28.8850,-90.0250,26.6,11111222 
LOOP,urn:ioos:station:wmo:lopl1:1,2012-06-02T06:45:00Z,28.8850,-90.0250,26.5,11111222 
LOOP,urn:ioos:station:wmo:lopl1:1,2012-06-02T07:00:00Z,28.8850,-90.0250,26.4,11111222 
LOOP,urn:ioos:station:wmo:lopl1:1,2012-06-02T07:15:00Z,28.8850,-90.0250,26.3,11111222 
LOOP,urn:ioos:station:wmo:lopl1:1,2012-06-02T07:30:00Z,28.8850,-90.0250,26.3,11111222 
LOOP,urn:ioos:station:wmo:lopl1:1,2012-06-02T07:45:00Z,28.8850,-90.0250,25.6,11111222 
LOOP,urn:ioos:station:wmo:lopl1:1,2012-06-02T08:00:00Z,28.8850,-90.0250,25.5,11111222 
LOOP,urn:ioos:station:wmo:lopl1:1,2012-06-02T08:15:00Z,28.8850,-90.0250,25.2,11111222 
LOOP,urn:ioos:station:wmo:lopl1:1,2012-06-02T08:30:00Z,28.8850,-90.0250,25.3,11111222 
LOOP,urn:ioos:station:wmo:lopl1:1,2012-06-02T08:45:00Z,28.8850,-90.0250,25.3,11111222 
LOOP,urn:ioos:station:wmo:lopl1:1,2012-06-02T09:00:00Z,28.8850,-90.0250,25.2,11111222 
LOOP,urn:ioos:station:wmo:lopl1:1,2012-06-02T09:15:00Z,28.8850,-90.0250,25.0,11111222 
LOOP,urn:ioos:station:wmo:lopl1:1,2012-06-02T09:30:00Z,28.8850,-90.0250,24.8,11111222 
LOOP,urn:ioos:station:wmo:lopl1:1,2012-06-02T09:45:00Z,28.8850,-90.0250,24.8,11111222 
LOOP,urn:ioos:station:wmo:lopl1:1,2012-06-02T10:00:00Z,28.8850,-90.0250,24.7,11111222 
LOOP,urn:ioos:station:wmo:lopl1:1,2012-06-02T10:15:00Z,28.8850,-90.0250,24.5,11111222 
LOOP,urn:ioos:station:wmo:lopl1:1,2012-06-02T10:30:00Z,28.8850,-90.0250,24.4,11111222 
LOOP,urn:ioos:station:wmo:lopl1:1,2012-06-02T10:45:00Z,28.8850,-90.0250,24.3,11111222 
LOOP,urn:ioos:station:wmo:lopl1:1,2012-06-02T11:00:00Z,28.8850,-90.0250,24.4,11111222 
LOOP,urn:ioos:station:wmo:lopl1:1,2012-06-02T11:15:00Z,28.8850,-90.0250,24.3,11111222 
LOOP,urn:ioos:station:wmo:lopl1:1,2012-06-02T11:30:00Z,28.8850,-90.0250,24.6,11111222 
LOOP,urn:ioos:station:wmo:lopl1:1,2012-06-02T11:45:00Z,28.8850,-90.0250,24.8,11111222 
LOOP,urn:ioos:station:wmo:lopl1:1,2012-06-02T12:00:00Z,28.8850,-90.0250,25.1,11111222 
LOOP,urn:ioos:station:wmo:lopl1:1,2012-06-02T12:15:00Z,28.8850,-90.0250,25.1,11111222 
LOOP,urn:ioos:station:wmo:lopl1:1,2012-06-02T12:35:00Z,28.8850,-90.0250,25.1,11111222 
LOOP,urn:ioos:station:wmo:lopl1:1,2012-06-02T12:50:00Z,28.8850,-90.0250,25.2,11111222 
LOOP,urn:ioos:station:wmo:lopl1:1,2012-06-02T13:05:00Z,28.8850,-90.0250,25.2,11111222 
LOOP,urn:ioos:station:wmo:lopl1:1,2012-06-02T13:20:00Z,28.8850,-90.0250,25.1,11111222 
LOOP,urn:ioos:station:wmo:lopl1:1,2012-06-02T13:35:00Z,28.8850,-90.0250,25.2,11111222 
LOOP,urn:ioos:station:wmo:lopl1:1,2012-06-02T13:50:00Z,28.8850,-90.0250,25.1,11111222 
LOOP,urn:ioos:station:wmo:lopl1:1,2012-06-02T14:05:00Z,28.8850,-90.0250,25.2,11111222 
LOOP,urn:ioos:station:wmo:lopl1:1,2012-06-02T14:20:00Z,28.8850,-90.0250,25.2,11111222 
LOOP,urn:ioos:station:wmo:lopl1:1,2012-06-02T14:35:00Z,28.8850,-90.0250,25.2,11111222 
LOOP,urn:ioos:station:wmo:lopl1:1,2012-06-02T14:50:00Z,28.8850,-90.0250,25.2,11111222 
LOOP,urn:ioos:station:wmo:lopl1:1,2012-06-02T15:05:00Z,28.8850,-90.0250,25.2,11111222 
LOOP,urn:ioos:station:wmo:lopl1:1,2012-06-02T15:20:00Z,28.8850,-90.0250,25.2,11111222 
LOOP,urn:ioos:station:wmo:lopl1:1,2012-06-02T15:35:00Z,28.8850,-90.0250,25.2,11111222 
LOOP,urn:ioos:station:wmo:lopl1:1,2012-06-02T15:50:00Z,28.8850,-90.0250,25.2,11111222 
LOOP,urn:ioos:station:wmo:lopl1:1,2012-06-02T16:05:00Z,28.8850,-90.0250,25.2,11111222 
LOOP,urn:ioos:station:wmo:lopl1:1,2012-06-02T16:20:00Z,28.8850,-90.0250,25.2,11111222 
LOOP,urn:ioos:station:wmo:lopl1:1,2012-06-02T16:35:00Z,28.8850,-90.0250,25.1,11111222 
LOOP,urn:ioos:station:wmo:lopl1:1,2012-06-02T16:50:00Z,28.8850,-90.0250,25.2,11111222 
LOOP,urn:ioos:station:wmo:lopl1:1,2012-06-02T17:05:00Z,28.8850,-90.0250,25.2,11111222 
LOOP,urn:ioos:station:wmo:lopl1:1,2012-06-02T17:20:00Z,28.8850,-90.0250,25.3,11111222 
LOOP,urn:ioos:station:wmo:lopl1:1,2012-06-02T17:35:00Z,28.8850,-90.0250,25.3,11111222 
LOOP,urn:ioos:station:wmo:lopl1:1,2012-06-02T17:50:00Z,28.8850,-90.0250,25.3,11111222 
LOOP,urn:ioos:station:wmo:lopl1:1,2012-06-02T18:05:00Z,28.8850,-90.0250,25.3,11111222 
LOOP,urn:ioos:station:wmo:lopl1:1,2012-06-02T18:20:00Z,28.8850,-90.0250,25.3,11111222 
LOOP,urn:ioos:station:wmo:lopl1:1,2012-06-02T18:35:00Z,28.8850,-90.0250,25.4,11111222 
LOOP,urn:ioos:station:wmo:lopl1:1,2012-06-02T18:50:00Z,28.8850,-90.0250,25.4,11111222 
LOOP,urn:ioos:station:wmo:lopl1:1,2012-06-02T19:05:00Z,28.8850,-90.0250,25.5,11111222 
LOOP,urn:ioos:station:wmo:lopl1:1,2012-06-02T19:20:00Z,28.8850,-90.0250,25.5,11111222 
LOOP,urn:ioos:station:wmo:lopl1:1,2012-06-02T19:35:00Z,28.8850,-90.0250,25.5,11111222 
LOOP,urn:ioos:station:wmo:lopl1:1,2012-06-02T19:50:00Z,28.8850,-90.0250,25.6,11111222 
LOOP,urn:ioos:station:wmo:lopl1:1,2012-06-02T20:05:00Z,28.8850,-90.0250,25.7,11111222 
LOOP,urn:ioos:station:wmo:lopl1:1,2012-06-02T20:20:00Z,28.8850,-90.0250,25.6,11111222 
LOOP,urn:ioos:station:wmo:lopl1:1,2012-06-02T20:35:00Z,28.8850,-90.0250,25.7,11111222 
LOOP,urn:ioos:station:wmo:lopl1:1,2012-06-02T20:55:00Z,28.8850,-90.0250,25.8,11111222 
LOOP,urn:ioos:station:wmo:lopl1:1,2012-06-02T21:10:00Z,28.8850,-90.0250,25.8,11111222 
LOOP,urn:ioos:station:wmo:lopl1:1,2012-06-02T21:25:00Z,28.8850,-90.0250,25.9,11111222 
LOOP,urn:ioos:station:wmo:lopl1:1,2012-06-02T21:40:00Z,28.8850,-90.0250,25.9,11111222 
LOOP,urn:ioos:station:wmo:lopl1:1,2012-06-02T21:55:00Z,28.8850,-90.0250,26.0,11111222 
LOOP,urn:ioos:station:wmo:lopl1:1,2012-06-02T22:10:00Z,28.8850,-90.0250,26.1,11111222 
LOOP,urn:ioos:station:wmo:lopl1:1,2012-06-02T22:25:00Z,28.8850,-90.0250,26.0,11111222 
LOOP,urn:ioos:station:wmo:lopl1:1,2012-06-02T22:40:00Z,28.8850,-90.0250,26.1,11111222 
LOOP,urn:ioos:station:wmo:lopl1:1,2012-06-02T22:55:00Z,28.8850,-90.0250,26.1,11111222 
LOOP,urn:ioos:station:wmo:lopl1:1,2012-06-02T23:10:00Z,28.8850,-90.0250,26.2,11111222 
LOOP,urn:ioos:station:wmo:lopl1:1,2012-06-02T23:25:00Z,28.8850,-90.0250,26.2,11111222 
LOOP,urn:ioos:station:wmo:lopl1:1,2012-06-02T23:40:00Z,28.8850,-90.0250,26.3,11111222 
LOOP,urn:ioos:station:wmo:lopl1:1,2012-06-02T23:55:00Z,28.8850,-90.0250,26.3,11111222 
LOOP,urn:ioos:station:wmo:lopl1:1,2012-06-03T00:10:00Z,28.8850,-90.0250,26.4,11111222 
LOOP,urn:ioos:station:wmo:lopl1:1,2012-06-03T00:25:00Z,28.8850,-90.0250,26.3,11111222 
LOOP,urn:ioos:station:wmo:lopl1:1,2012-06-03T00:40:00Z,28.8850,-90.0250,26.2,11111222 
LOOP,urn:ioos:station:wmo:lopl1:1,2012-06-03T00:55:00Z,28.8850,-90.0250,26.2,11111222 
LOOP,urn:ioos:station:wmo:lopl1:1,2012-06-03T01:10:00Z,28.8850,-90.0250,26.3,11111222 
LOOP,urn:ioos:station:wmo:lopl1:1,2012-06-03T01:25:00Z,28.8850,-90.0250,26.3,11111222 
LOOP,urn:ioos:station:wmo:lopl1:1,2012-06-03T01:40:00Z,28.8850,-90.0250,26.2,11111222 
LOOP,urn:ioos:station:wmo:lopl1:1,2012-06-03T01:55:00Z,28.8850,-90.0250,26.3,11111222 
LOOP,urn:ioos:station:wmo:lopl1:1,2012-06-03T02:10:00Z,28.8850,-90.0250,26.3,11111222 
LOOP,urn:ioos:station:wmo:lopl1:1,2012-06-03T02:25:00Z,28.8850,-90.0250,26.2,11111222 
LOOP,urn:ioos:station:wmo:lopl1:1,2012-06-03T02:40:00Z,28.8850,-90.0250,26.3,11111222 
LOOP,urn:ioos:station:wmo:lopl1:1,2012-06-03T02:55:00Z,28.8850,-90.0250,26.3,11111222 
LOOP,urn:ioos:station:wmo:lopl1:1,2012-06-03T03:10:00Z,28.8850,-90.0250,26.3,11111222 
LOOP,urn:ioos:station:wmo:lopl1:1,2012-06-03T03:30:00Z,28.8850,-90.0250,26.2,11111222 
LOOP,urn:ioos:station:wmo:lopl1:1,2012-06-03T03:45:00Z,28.8850,-90.0250,26.2,11111222 
LOOP,urn:ioos:station:wmo:lopl1:1,2012-06-03T04:00:00Z,28.8850,-90.0250,26.3,11111222 
LOOP,urn:ioos:station:wmo:lopl1:1,2012-06-03T04:15:00Z,28.8850,-90.0250,26.3,11111222 
LOOP,urn:ioos:station:wmo:lopl1:1,2012-06-03T04:30:00Z,28.8850,-90.0250,26.2,11111222 
LOOP,urn:ioos:station:wmo:lopl1:1,2012-06-03T04:45:00Z,28.8850,-90.0250,26.2,11111222 
LOOP,urn:ioos:station:wmo:lopl1:1,2012-06-03T05:00:00Z,28.8850,-90.0250,26.2,11111222 
LOOP,urn:ioos:station:wmo:lopl1:1,2012-06-03T05:15:00Z,28.8850,-90.0250,26.3,11111222 
LOOP,urn:ioos:station:wmo:lopl1:1,2012-06-03T05:30:00Z,28.8850,-90.0250,26.3,11111222 
LOOP,urn:ioos:station:wmo:lopl1:1,2012-06-03T05:45:00Z,28.8850,-90.0250,26.3,11111222 
LOOP,urn:ioos:station:wmo:lopl1:1,2012-06-03T06:00:00Z,28.8850,-90.0250,26.3,11111222 
LOOP,urn:ioos:station:wmo:lopl1:1,2012-06-03T06:15:00Z,28.8850,-90.0250,26.3,11111222 
LOOP,urn:ioos:station:wmo:lopl1:1,2012-06-03T06:30:00Z,28.8850,-90.0250,26.2,11111222 
LOOP,urn:ioos:station:wmo:lopl1:1,2012-06-03T06:45:00Z,28.8850,-90.0250,26.2,11111222 
LOOP,urn:ioos:station:wmo:lopl1:1,2012-06-03T07:00:00Z,28.8850,-90.0250,26.2,11111222 
LOOP,urn:ioos:station:wmo:lopl1:1,2012-06-03T07:15:00Z,28.8850,-90.0250,26.2,11111222 
LOOP,urn:ioos:station:wmo:lopl1:1,2012-06-03T07:30:00Z,28.8850,-90.0250,26.3,11111222 
LOOP,urn:ioos:station:wmo:lopl1:1,2012-06-03T07:45:00Z,28.8850,-90.0250,26.3,11111222 
LOOP,urn:ioos:station:wmo:lopl1:1,2012-06-03T08:00:00Z,28.8850,-90.0250,26.3,11111222 
LOOP,urn:ioos:station:wmo:lopl1:1,2012-06-03T08:15:00Z,28.8850,-90.0250,26.3,11111222 
LOOP,urn:ioos:station:wmo:lopl1:1,2012-06-03T08:35:00Z,28.8850,-90.0250,26.3,11111222 
LOOP,urn:ioos:station:wmo:lopl1:1,2012-06-03T08:50:00Z,28.8850,-90.0250,26.3,11111222 
LOOP,urn:ioos:station:wmo:lopl1:1,2012-06-03T09:05:00Z,28.8850,-90.0250,26.3,11111222 
LOOP,urn:ioos:station:wmo:lopl1:1,2012-06-03T09:20:00Z,28.8850,-90.0250,26.4,11111222 
LOOP,urn:ioos:station:wmo:lopl1:1,2012-06-03T09:35:00Z,28.8850,-90.0250,26.3,11111222 
LOOP,urn:ioos:station:wmo:lopl1:1,2012-06-03T09:50:00Z,28.8850,-90.0250,26.3,11111222 
LOOP,urn:ioos:station:wmo:lopl1:1,2012-06-03T10:05:00Z,28.8850,-90.0250,26.2,11111222 
LOOP,urn:ioos:station:wmo:lopl1:1,2012-06-03T10:20:00Z,28.8850,-90.0250,26.3,11111222 
LOOP,urn:ioos:station:wmo:lopl1:1,2012-06-03T10:35:00Z,28.8850,-90.0250,26.3,11111222 
LOOP,urn:ioos:station:wmo:lopl1:1,2012-06-03T10:50:00Z,28.8850,-90.0250,26.3,11111222 
LOOP,urn:ioos:station:wmo:lopl1:1,2012-06-03T11:05:00Z,28.8850,-90.0250,26.3,11111222 
LOOP,urn:ioos:station:wmo:lopl1:1,2012-06-03T11:20:00Z,28.8850,-90.0250,26.4,11111222 
LOOP,urn:ioos:station:wmo:lopl1:1,2012-06-03T11:35:00Z,28.8850,-90.0250,26.3,11111222 
LOOP,urn:ioos:station:wmo:lopl1:1,2012-06-03T11:50:00Z,28.8850,-90.0250,26.4,11111222 
LOOP,urn:ioos:station:wmo:lopl1:1,2012-06-03T12:05:00Z,28.8850,-90.0250,26.4,11111222 
LOOP,urn:ioos:station:wmo:lopl1:1,2012-06-03T12:20:00Z,28.8850,-90.0250,26.4,11111222 
LOOP,urn:ioos:station:wmo:lopl1:1,2012-06-03T12:35:00Z,28.8850,-90.0250,26.6,11111222 
LOOP,urn:ioos:station:wmo:lopl1:1,2012-06-03T12:50:00Z,28.8850,-90.0250,26.6,11111222 
LOOP,urn:ioos:station:wmo:lopl1:1,2012-06-03T13:05:00Z,28.8850,-90.0250,26.6,11111222 
LOOP,urn:ioos:station:wmo:lopl1:1,2012-06-03T13:20:00Z,28.8850,-90.0250,26.7,11111222 
LOOP,urn:ioos:station:wmo:lopl1:1,2012-06-03T13:35:00Z,28.8850,-90.0250,26.6,11111222 
LOOP,urn:ioos:station:wmo:lopl1:1,2012-06-03T13:50:00Z,28.8850,-90.0250,26.6,11111222 
LOOP,urn:ioos:station:wmo:lopl1:1,2012-06-03T14:05:00Z,28.8850,-90.0250,26.7,11111222 
LOOP,urn:ioos:station:wmo:lopl1:1,2012-06-03T14:20:00Z,28.8850,-90.0250,26.8,11111222 
LOOP,urn:ioos:station:wmo:lopl1:1,2012-06-03T14:35:00Z,28.8850,-90.0250,26.7,11111222 
LOOP,urn:ioos:station:wmo:lopl1:1,2012-06-03T14:50:00Z,28.8850,-90.0250,26.8,11111222 
LOOP,urn:ioos:station:wmo:lopl1:1,2012-06-03T15:05:00Z,28.8850,-90.0250,26.9,11111222 
LOOP,urn:ioos:station:wmo:lopl1:1,2012-06-03T15:20:00Z,28.8850,-90.0250,26.9,11111222 
LOOP,urn:ioos:station:wmo:lopl1:1,2012-06-03T15:35:00Z,28.8850,-90.0250,27.0,11111222 
LOOP,urn:ioos:station:wmo:lopl1:1,2012-06-03T15:50:00Z,28.8850,-90.0250,27.0,11111222 
LOOP,urn:ioos:station:wmo:lopl1:1,2012-06-03T16:10:00Z,28.8850,-90.0250,27.1,11111222 
LOOP,urn:ioos:station:wmo:lopl1:1,2012-06-03T16:25:00Z,28.8850,-90.0250,27.2,11111222 
LOOP,urn:ioos:station:wmo:lopl1:1,2012-06-03T16:40:00Z,28.8850,-90.0250,27.3,11111222 
LOOP,urn:ioos:station:wmo:lopl1:1,2012-06-03T16:55:00Z,28.8850,-90.0250,27.3,11111222 
LOOP,urn:ioos:station:wmo:lopl1:1,2012-06-03T17:10:00Z,28.8850,-90.0250,27.4,11111222 
LOOP,urn:ioos:station:wmo:lopl1:1,2012-06-03T17:25:00Z,28.8850,-90.0250,27.2,11111222 
LOOP,urn:ioos:station:wmo:lopl1:1,2012-06-03T17:40:00Z,28.8850,-90.0250,27.2,11111222 
LOOP,urn:ioos:station:wmo:lopl1:1,2012-06-03T17:55:00Z,28.8850,-90.0250,27.4,11111222 
LOOP,urn:ioos:station:wmo:lopl1:1,2012-06-03T18:10:00Z,28.8850,-90.0250,27.6,11111222 
LOOP,urn:ioos:station:wmo:lopl1:1,2012-06-03T18:25:00Z,28.8850,-90.0250,27.5,11111222 
LOOP,urn:ioos:station:wmo:lopl1:1,2012-06-03T18:40:00Z,28.8850,-90.0250,27.5,11111222 
LOOP,urn:ioos:station:wmo:lopl1:1,2012-06-03T18:55:00Z,28.8850,-90.0250,27.3,11111222 
LOOP,urn:ioos:station:wmo:lopl1:1,2012-06-03T19:10:00Z,28.8850,-90.0250,27.4,11111222 
LOOP,urn:ioos:station:wmo:lopl1:1,2012-06-03T19:25:00Z,28.8850,-90.0250,27.4,11111222 
LOOP,urn:ioos:station:wmo:lopl1:1,2012-06-03T19:40:00Z,28.8850,-90.0250,27.4,11111222 
LOOP,urn:ioos:station:wmo:lopl1:1,2012-06-03T19:55:00Z,28.8850,-90.0250,27.3,11111222 
LOOP,urn:ioos:station:wmo:lopl1:1,2012-06-03T20:10:00Z,28.8850,-90.0250,27.4,11111222 
LOOP,urn:ioos:station:wmo:lopl1:1,2012-06-03T20:25:00Z,28.8850,-90.0250,27.4,11111222 
LOOP,urn:ioos:station:wmo:lopl1:1,2012-06-03T20:40:00Z,28.8850,-90.0250,27.4,11111222 
LOOP,urn:ioos:station:wmo:lopl1:1,2012-06-03T20:55:00Z,28.8850,-90.0250,27.5,11111222 
LOOP,urn:ioos:station:wmo:lopl1:1,2012-06-03T21:10:00Z,28.8850,-90.0250,27.6,11111222 
LOOP,urn:ioos:station:wmo:lopl1:1,2012-06-03T21:25:00Z,28.8850,-90.0250,27.7,11111222 